EDV5234 KDCA-KJFK

Flight info

Callsign EDV5234
Flight time 0h 44m
Altitude 17000
Route DOCTR5 AGARD T287 DONIL T315 PANZE V44 CAMRN
Aircraft CRJ9/M-SDFGIRWY/S

Departure

Time 2026-05-06 23:20
Airport Ronald Reagan Washington National Airport (KDCA)

Arrival

Time 2026-05-07 00:04
Airport John F. Kennedy International Airport (KJFK)
Time Latitude Longitude Altitude Speed Heading
2026-05-06 22:59 38.85554 -77.04217 22 ft 0 kts 337°
2026-05-06 23:07 38.85552 -77.04216 22 ft 2 kts 337°
2026-05-06 23:07 38.85531 -77.04205 22 ft 2 kts 337°
2026-05-06 23:08 38.85513 -77.04203 22 ft 4 kts 37°
2026-05-06 23:08 38.85503 -77.04229 22 ft 4 kts 72°
2026-05-06 23:08 38.85496 -77.04256 22 ft 1 kts 72°
2026-05-06 23:08 38.85496 -77.04257 22 ft 0 kts 72°
2026-05-06 23:13 38.85502 -77.04230 24 ft 9 kts 72°
2026-05-06 23:13 38.85523 -77.04148 22 ft 10 kts 72°
2026-05-06 23:13 38.85541 -77.04076 22 ft 6 kts 72°
2026-05-06 23:13 38.85546 -77.04053 22 ft 2 kts 72°
2026-05-06 23:14 38.85550 -77.04038 22 ft 2 kts 72°
2026-05-06 23:14 38.85563 -77.03983 24 ft 9 kts 62°
2026-05-06 23:14 38.85617 -77.03963 25 ft 11 kts 356°
2026-05-06 23:14 38.85696 -77.03971 24 ft 11 kts 355°
2026-05-06 23:15 38.85780 -77.03979 24 ft 14 kts 355°
2026-05-06 23:15 38.85881 -77.03989 23 ft 14 kts 359°
2026-05-06 23:15 38.85940 -77.03979 24 ft 4 kts 15°
2026-05-06 23:15 38.85944 -77.03977 23 ft 0 kts 15°
2026-05-06 23:16 38.85965 -77.03970 23 ft 3 kts 15°
2026-05-06 23:16 38.85996 -77.03959 23 ft 6 kts 16°
2026-05-06 23:16 38.86004 -77.03956 24 ft 0 kts 16°
2026-05-06 23:16 38.86006 -77.03955 22 ft 1 kts 17°
2026-05-06 23:17 38.86033 -77.03945 24 ft 9 kts 16°
2026-05-06 23:17 38.86087 -77.03896 21 ft 8 kts 73°
2026-05-06 23:17 38.86081 -77.03870 21 ft 1 kts 148°
2026-05-06 23:17 38.86078 -77.03869 21 ft 0 kts 173°
2026-05-06 23:19 38.86018 -77.03863 22 ft 34 kts 177°
2026-05-06 23:19 38.85503 -77.03812 24 ft 112 kts 175°
2026-05-06 23:19 38.84520 -77.03715 86 ft 165 kts 176°
2026-05-06 23:20 38.83366 -77.03611 931 ft 164 kts 176°
2026-05-06 23:20 38.82232 -77.03416 1840 ft 165 kts 171°
2026-05-06 23:20 38.81095 -77.03138 2677 ft 170 kts 171°
2026-05-06 23:20 38.79908 -77.02808 3427 ft 178 kts 174°
2026-05-06 23:21 38.78662 -77.02480 4156 ft 187 kts 178°
2026-05-06 23:21 38.77278 -77.02192 4450 ft 225 kts 178°
2026-05-06 23:21 38.75677 -77.01275 4584 ft 287 kts 145°
2026-05-06 23:21 38.74433 -76.98973 4642 ft 342 kts 115°
2026-05-06 23:22 38.74132 -76.95969 4970 ft 348 kts 84°
2026-05-06 23:22 38.74669 -76.93057 6573 ft 330 kts 66°
2026-05-06 23:22 38.75967 -76.90755 7870 ft 316 kts 36°
2026-05-06 23:22 38.77802 -76.89230 8796 ft 314 kts 22°
2026-05-06 23:23 38.79753 -76.87921 9660 ft 317 kts 21°
2026-05-06 23:23 38.81694 -76.86632 10525 ft 321 kts 22°
2026-05-06 23:23 38.83750 -76.85194 10951 ft 343 kts 25°
2026-05-06 23:23 38.85846 -76.83554 11372 ft 365 kts 33°
2026-05-06 23:24 38.87555 -76.81099 11825 ft 385 kts 59°
2026-05-06 23:24 38.88668 -76.77945 12619 ft 390 kts 67°
2026-05-06 23:24 38.89685 -76.74688 13356 ft 395 kts 67°
2026-05-06 23:24 38.90746 -76.71406 14060 ft 401 kts 65°
2026-05-06 23:25 38.91908 -76.68122 14718 ft 407 kts 63°
2026-05-06 23:25 38.93156 -76.64831 15420 ft 412 kts 62°
2026-05-06 23:25 38.94410 -76.61505 16073 ft 417 kts 62°
2026-05-06 23:25 38.95636 -76.58088 16593 ft 426 kts 64°
2026-05-06 23:26 38.96813 -76.54516 16836 ft 442 kts 65°
2026-05-06 23:26 38.97972 -76.50868 16938 ft 440 kts 65°
2026-05-06 23:26 38.99150 -76.47245 16986 ft 439 kts 65°
2026-05-06 23:26 39.00338 -76.43635 17003 ft 438 kts 65°
2026-05-06 23:27 39.01309 -76.39977 16997 ft 440 kts 78°
2026-05-06 23:27 39.01649 -76.36070 17006 ft 440 kts 88°
2026-05-06 23:27 39.01782 -76.32135 17009 ft 441 kts 88°
2026-05-06 23:27 39.01940 -76.28190 17010 ft 442 kts 86°
2026-05-06 23:28 39.02199 -76.24252 17008 ft 442 kts 84°
2026-05-06 23:28 39.02515 -76.20318 17008 ft 442 kts 84°
2026-05-06 23:28 39.02814 -76.16373 17005 ft 442 kts 85°
2026-05-06 23:28 39.03095 -76.12437 17008 ft 442 kts 85°
2026-05-06 23:29 39.03375 -76.08505 17006 ft 441 kts 85°
2026-05-06 23:29 39.03656 -76.04566 17011 ft 442 kts 85°
2026-05-06 23:29 39.03942 -76.00632 17013 ft 442 kts 85°
2026-05-06 23:29 39.04224 -75.96687 17017 ft 443 kts 85°
2026-05-06 23:30 39.04506 -75.92743 17017 ft 443 kts 85°
2026-05-06 23:30 39.04781 -75.88802 17011 ft 443 kts 85°
2026-05-06 23:30 39.05059 -75.84855 17009 ft 443 kts 85°
2026-05-06 23:30 39.05333 -75.80962 17007 ft 442 kts 85°
2026-05-06 23:31 39.05607 -75.77022 17004 ft 441 kts 85°
2026-05-06 23:31 39.05876 -75.73098 17002 ft 440 kts 85°
2026-05-06 23:31 39.06099 -75.69170 17001 ft 440 kts 87°
2026-05-06 23:31 39.06263 -75.65245 16999 ft 439 kts 88°
2026-05-06 23:32 39.06421 -75.61326 17001 ft 438 kts 88°
2026-05-06 23:32 39.06588 -75.57400 17002 ft 438 kts 87°
2026-05-06 23:32 39.06751 -75.53476 16996 ft 438 kts 88°
2026-05-06 23:32 39.06915 -75.49564 16989 ft 438 kts 88°
2026-05-06 23:33 39.07077 -75.45647 16986 ft 437 kts 88°
2026-05-06 23:33 39.07236 -75.41794 16984 ft 437 kts 88°
2026-05-06 23:33 39.07398 -75.37890 16986 ft 437 kts 87°
2026-05-06 23:33 39.07554 -75.33986 16987 ft 436 kts 88°
2026-05-06 23:34 39.07962 -75.30126 16968 ft 435 kts 71°
2026-05-06 23:34 39.09302 -75.26677 16990 ft 429 kts 52°
2026-05-06 23:34 39.11082 -75.23611 17008 ft 427 kts 49°
2026-05-06 23:34 39.12891 -75.20576 17013 ft 426 kts 49°
2026-05-06 23:35 39.14630 -75.17477 17012 ft 427 kts 52°
2026-05-06 23:35 39.16293 -75.14293 17013 ft 428 kts 53°
2026-05-06 23:35 39.17938 -75.11101 17014 ft 428 kts 53°
2026-05-06 23:35 39.19599 -75.07917 17015 ft 428 kts 53°
2026-05-06 23:36 39.21262 -75.04738 17014 ft 428 kts 53°
2026-05-06 23:36 39.22924 -75.01555 17015 ft 428 kts 53°
2026-05-06 23:36 39.24582 -74.98373 17014 ft 428 kts 53°
2026-05-06 23:36 39.26250 -74.95200 17015 ft 427 kts 53°
2026-05-06 23:37 39.27895 -74.92002 17016 ft 428 kts 53°
2026-05-06 23:37 39.29542 -74.88803 17016 ft 428 kts 53°
2026-05-06 23:37 39.31209 -74.85604 17016 ft 429 kts 53°
2026-05-06 23:37 39.32850 -74.82444 17015 ft 429 kts 53°
2026-05-06 23:38 39.34521 -74.79236 17015 ft 430 kts 53°
2026-05-06 23:38 39.36190 -74.76023 17013 ft 431 kts 53°
2026-05-06 23:38 39.37853 -74.72794 17013 ft 431 kts 53°
2026-05-06 23:38 39.39510 -74.69564 17011 ft 432 kts 53°
2026-05-06 23:39 39.41180 -74.66333 17009 ft 432 kts 53°
2026-05-06 23:39 39.42846 -74.63101 17007 ft 432 kts 53°
2026-05-06 23:39 39.44521 -74.59869 17006 ft 432 kts 53°
2026-05-06 23:39 39.46195 -74.56629 17005 ft 432 kts 53°
2026-05-06 23:40 39.47869 -74.53402 17005 ft 432 kts 52°
2026-05-06 23:40 39.49591 -74.50210 17006 ft 432 kts 52°
2026-05-06 23:40 39.51318 -74.47024 17006 ft 432 kts 52°
2026-05-06 23:40 39.53045 -74.43831 17006 ft 433 kts 52°
2026-05-06 23:41 39.54770 -74.40633 17005 ft 433 kts 52°
2026-05-06 23:41 39.56498 -74.37429 17005 ft 433 kts 52°
2026-05-06 23:41 39.58226 -74.34226 17005 ft 433 kts 52°
2026-05-06 23:41 39.59951 -74.31024 17006 ft 433 kts 52°
2026-05-06 23:42 39.61652 -74.27859 17005 ft 434 kts 52°
2026-05-06 23:42 39.63382 -74.24639 16761 ft 438 kts 52°
2026-05-06 23:42 39.65102 -74.21435 16077 ft 427 kts 52°
2026-05-06 23:42 39.66786 -74.18301 15356 ft 419 kts 52°
2026-05-06 23:43 39.68611 -74.15416 14698 ft 408 kts 40°
2026-05-06 23:43 39.70746 -74.13053 14152 ft 399 kts 34°
2026-05-06 23:43 39.72926 -74.10858 13705 ft 395 kts 33°
2026-05-06 23:43 39.75075 -74.08666 13304 ft 391 kts 35°
2026-05-06 23:44 39.77168 -74.06412 12902 ft 388 kts 37°
2026-05-06 23:44 39.79225 -74.04122 12550 ft 390 kts 37°
2026-05-06 23:44 39.81298 -74.01831 12235 ft 390 kts 37°
2026-05-06 23:44 39.83354 -73.99539 11977 ft 388 kts 38°
2026-05-06 23:45 39.85494 -73.97447 11764 ft 381 kts 27°
2026-05-06 23:45 39.87798 -73.95788 11610 ft 376 kts 22°
2026-05-06 23:45 39.90132 -73.94268 11461 ft 375 kts 21°
2026-05-06 23:45 39.92445 -73.92757 11317 ft 365 kts 22°
2026-05-06 23:46 39.94648 -73.91229 11150 ft 355 kts 23°
2026-05-06 23:46 39.96834 -73.89703 11066 ft 356 kts 24°
2026-05-06 23:46 39.98986 -73.88190 11022 ft 355 kts 24°
2026-05-06 23:46 40.01127 -73.86669 10998 ft 340 kts 24°
2026-05-06 23:47 40.03164 -73.85213 10991 ft 330 kts 24°
2026-05-06 23:47 40.05155 -73.83771 10981 ft 324 kts 24°
2026-05-06 23:47 40.07115 -73.82281 10983 ft 327 kts 26°
2026-05-06 23:47 40.08416 -73.81257 10997 ft 331 kts 26°
2026-05-06 23:48 40.10387 -73.79682 11011 ft 335 kts 27°
2026-05-06 23:48 40.12380 -73.78060 11014 ft 339 kts 27°
2026-05-06 23:48 40.14388 -73.76421 11018 ft 339 kts 27°
2026-05-06 23:48 40.16383 -73.74791 11009 ft 336 kts 27°
2026-05-06 23:49 40.18368 -73.73168 10628 ft 336 kts 27°
2026-05-06 23:49 40.20354 -73.71545 10228 ft 337 kts 27°
2026-05-06 23:49 40.22337 -73.69921 9808 ft 337 kts 27°
2026-05-06 23:49 40.24303 -73.68312 9339 ft 330 kts 27°
2026-05-06 23:50 40.26240 -73.66730 8882 ft 329 kts 27°
2026-05-06 23:50 40.30122 -73.63579 8001 ft 331 kts 27°
2026-05-06 23:50 40.32067 -73.62008 7516 ft 326 kts 27°
2026-05-06 23:51 40.33987 -73.60464 7002 ft 320 kts 27°
2026-05-06 23:51 40.35852 -73.58958 6508 ft 317 kts 27°
2026-05-06 23:51 40.37753 -73.57429 6003 ft 317 kts 27°
2026-05-06 23:51 40.39646 -73.55935 5508 ft 318 kts 27°
2026-05-06 23:52 40.41520 -73.54468 5000 ft 310 kts 27°
2026-05-06 23:52 40.43366 -73.53042 4489 ft 304 kts 27°
2026-05-06 23:52 40.45145 -73.51679 4187 ft 289 kts 27°
2026-05-06 23:52 40.46843 -73.50380 4067 ft 278 kts 27°
2026-05-06 23:53 40.48507 -73.49113 4005 ft 275 kts 27°
2026-05-06 23:53 40.50173 -73.47861 3993 ft 276 kts 27°
2026-05-06 23:53 40.51841 -73.46613 4059 ft 268 kts 28°
2026-05-06 23:53 40.53424 -73.45608 4091 ft 239 kts 14°
2026-05-06 23:54 40.55029 -73.45556 4119 ft 228 kts 351°
2026-05-06 23:54 40.56580 -73.45889 4139 ft 230 kts 349°
2026-05-06 23:54 40.58118 -73.46276 4134 ft 218 kts 348°
2026-05-06 23:54 40.59561 -73.46666 4112 ft 206 kts 347°
2026-05-06 23:55 40.60987 -73.47068 4128 ft 211 kts 347°
2026-05-06 23:55 40.62446 -73.47487 4138 ft 219 kts 347°
2026-05-06 23:55 40.63969 -73.47929 4155 ft 228 kts 347°
2026-05-06 23:55 40.65500 -73.48375 4156 ft 221 kts 347°
2026-05-06 23:56 40.66988 -73.48810 4147 ft 220 kts 347°
2026-05-06 23:56 40.68487 -73.49247 4147 ft 220 kts 347°
2026-05-06 23:56 40.69992 -73.49687 3799 ft 223 kts 347°
2026-05-06 23:56 40.71510 -73.50130 3365 ft 223 kts 347°
2026-05-06 23:57 40.73006 -73.50567 2959 ft 221 kts 347°
2026-05-06 23:57 40.74501 -73.51002 2576 ft 218 kts 347°
2026-05-06 23:57 40.75973 -73.51432 2336 ft 214 kts 347°
2026-05-06 23:57 40.77404 -73.51847 2217 ft 206 kts 347°
2026-05-06 23:58 40.78803 -73.52253 2171 ft 211 kts 347°
2026-05-06 23:58 40.80219 -73.52689 2152 ft 207 kts 340°
2026-05-06 23:58 40.81404 -73.53809 2147 ft 214 kts 303°
2026-05-06 23:58 40.81839 -73.55633 2155 ft 210 kts 267°
2026-05-06 23:59 40.81652 -73.57542 2182 ft 214 kts 260°
2026-05-06 23:59 40.81289 -73.59451 2165 ft 215 kts 243°
2026-05-06 23:59 40.80537 -73.61143 2170 ft 209 kts 238°
2026-05-06 23:59 40.79800 -73.62694 2148 ft 196 kts 236°
2026-05-07 00:00 40.78865 -73.63909 2159 ft 193 kts 215°
2026-05-07 00:00 40.77705 -73.65005 2182 ft 203 kts 215°
2026-05-07 00:00 40.76577 -73.65998 2159 ft 188 kts 212°
2026-05-07 00:00 40.75490 -73.66887 2133 ft 180 kts 211°
2026-05-07 00:01 40.74432 -73.67718 2118 ft 177 kts 211°
2026-05-07 00:01 40.73345 -73.68568 2091 ft 187 kts 211°
2026-05-07 00:01 40.72216 -73.69450 1745 ft 189 kts 211°
2026-05-07 00:01 40.71115 -73.70316 1623 ft 170 kts 211°
2026-05-07 00:02 40.70174 -73.71056 1529 ft 149 kts 211°
2026-05-07 00:02 40.69313 -73.71730 1141 ft 137 kts 211°
2026-05-07 00:02 40.68496 -73.72372 912 ft 142 kts 211°
2026-05-07 00:02 40.67647 -73.73042 756 ft 142 kts 211°
2026-05-07 00:03 40.66793 -73.73714 577 ft 143 kts 211°
2026-05-07 00:03 40.65937 -73.74387 389 ft 142 kts 211°
2026-05-07 00:03 40.65099 -73.75054 212 ft 145 kts 209°
2026-05-07 00:03 40.64264 -73.75690 29 ft 129 kts 212°
2026-05-07 00:04 40.63622 -73.76192 20 ft 83 kts 210°
2026-05-07 00:04 40.63231 -73.76498 20 ft 50 kts 211°
2026-05-07 00:04 40.63028 -73.76693 20 ft 26 kts 225°
2026-05-07 00:04 40.62938 -73.76871 19 ft 17 kts 244°
2026-05-07 00:05 40.62925 -73.76991 22 ft 8 kts 307°